OBJECT PK

Last updated on Fri Aug 17 2018 00:15:07 GMT+0000 (Coordinated Universal Time)

1 43598U 98067PK 18228.65085360 -.00000481 00000-0 00000+0 0 9996 2 43598 51.6407 77.3740 0004709 67.9625 292.2290 15.54082547 149
UTC large
Height (km)
Speed (km/s)
/
Latitude / Longitude
Inclination (degrees)
Orbital Period (minutes)
Azimuth
Elevation
Range (km)
Doppler Factor

Next 0 passes for location: London (51.5072 / 0.1276)

Sorry there are no passes over London.